📊 Raw Sensor Data
Showing records 33876 to 33900 of 84,808 total
| ID | Distance (ft) | Battery V | Battery A | Int Temp (°F) | Int Humid (%) | Ext Temp (°F) | Solar V | RSSI | SNR | Time Stamp |
|---|---|---|---|---|---|---|---|---|---|---|
| 50945 | 15.3 | 3.91 | 0 | 96 | 41 | 88 | 5.10 | -72 | 8 | 09/03/2025 01:00 PM |
| 50944 | 14.3 | 3.91 | 9 | 94 | 41 | 87 | 5.10 | -72 | 8 | 09/03/2025 12:45 PM |
| 50943 | 15.3 | 3.91 | 8 | 92 | 41 | 86 | 5.10 | -74 | 6 | 09/03/2025 12:30 PM |
| 50942 | 15.3 | 3.97 | 9 | 91 | 41 | 84 | 5.10 | -73 | 8 | 09/03/2025 12:15 PM |
| 50941 | 15.3 | 3.91 | 6 | 89 | 41 | 87 | 5.10 | -73 | 8 | 09/03/2025 12:00 PM |
| 50940 | 14.3 | 3.91 | 0 | 88 | 41 | 83 | 5.10 | -73 | 8 | 09/03/2025 11:45 AM |
| 50939 | 15.4 | 3.91 | 9 | 86 | 41 | 83 | 5.10 | -72 | 7 | 09/03/2025 11:30 AM |
| 50938 | 15.3 | 4.11 | 9 | 85 | 41 | 80 | 5.10 | -72 | 8 | 09/03/2025 11:15 AM |
| 50937 | 15.4 | 3.91 | 9 | 84 | 41 | 80 | 5.10 | -73 | 8 | 09/03/2025 11:00 AM |
| 50936 | 15.3 | 3.91 | 6 | 82 | 41 | 84 | 5.10 | -72 | 7 | 09/03/2025 10:45 AM |
| 50935 | 15.3 | 3.91 | 9 | 80 | 41 | 76 | 5.10 | -73 | 8 | 09/03/2025 10:30 AM |
| 50934 | 15.3 | 3.91 | 0 | 78 | 41 | 78 | 5.10 | -74 | 7 | 09/03/2025 10:15 AM |
| 50933 | 15.3 | 3.91 | 0 | 77 | 41 | 78 | 5.10 | -73 | 8 | 09/03/2025 10:00 AM |
| 50932 | 15.3 | 3.98 | 9 | 75 | 41 | 79 | 5.10 | -73 | 8 | 09/03/2025 09:45 AM |
| 50931 | 15.3 | 3.91 | 9 | 73 | 41 | 75 | 5.10 | -73 | 8 | 09/03/2025 09:30 AM |
| 50930 | 15.3 | 4.07 | 9 | 72 | 41 | 74 | 5.10 | -73 | 7 | 09/03/2025 09:15 AM |
| 50929 | 15.3 | 3.96 | 0 | 71 | 41 | 73 | 5.10 | -72 | 7 | 09/03/2025 09:00 AM |
| 50928 | 15.3 | 3.91 | 10 | 69 | 41 | 72 | 5.10 | -72 | 8 | 09/03/2025 08:45 AM |
| 50927 | 15.3 | 3.93 | 10 | 68 | 41 | 72 | 5.10 | -73 | 8 | 09/03/2025 08:30 AM |
| 50926 | 15.2 | 4.10 | 107 | 66 | 41 | 70 | 4.50 | -72 | 9 | 09/03/2025 08:15 AM |
| 50925 | 15.2 | 4.02 | 64 | 64 | 41 | 70 | 4.50 | -73 | 8 | 09/03/2025 08:00 AM |
| 50924 | 15.2 | 3.95 | 24 | 62 | 41 | 72 | 4.50 | -72 | 8 | 09/03/2025 07:45 AM |
| 50923 | 15.1 | 3.90 | 20 | 59 | 43 | 67 | 4.50 | -72 | 6 | 09/03/2025 07:30 AM |
| 50922 | 15.1 | 3.92 | 10 | 57 | 43 | 63 | 4.50 | -72 | 8 | 09/03/2025 07:15 AM |
| 50921 | 15.0 | 3.89 | 0 | 56 | 43 | 58 | 4.50 | -72 | 8 | 09/03/2025 07:00 AM |